Powrót do katalogu

THORAD DELTA 1 DEB

AktywnyLEO
NORAD 8784·DEBRIS·🇺🇸 United States

Wystrzelony Nov 15, 1974 z Vandenberg Space Force Base

Loading…

Następne Przeloty (najbliższe 24 godziny)

TLE

ŚwieżeSource: Space-Track

Epoka: Sep 13, 2026, 03:07 UTC

1  8784U 74089DL  26256.13026169  .00010346  00000-0  14448-1 0  9990
2  8784 100.9987 311.8031 0200591 355.4316  59.8963 13.49850535544235

Śledź THORAD DELTA 1 DEB w czasie rzeczywistym z AllMySat

Download on the App Store